Torna al catalogo

INTELSAT 33E DEB

AttivoMEO
NORAD 64400·DEBRIS· XX

Lanciato Aug 24, 2016 da Guiana Space Centre

Loading…

Prossimi Passaggi (prossime 24 ore)

TLE

AggiornatoSource: Space-Track

Epoca: Sep 13, 2026, 17:11 UTC

1 64400U 16053AE  26256.71640399 -.00000061  00000-0  00000-0 0  9997
2 64400   1.7074  79.5577 0382966 329.7246  28.8634  1.03351329  7074

Traccia INTELSAT 33E DEB in tempo reale con AllMySat

Download on the App Store